K3CHZ Weather Reports


Display with metric or nautical units.
time (UTC)temp
F
wind
direction
speed
MPH
gust
MPH
rain 1hr
in
rain 24hr
in
rain mn
in
humidity
%
barometer
mb
20260906053137 63 322 0.0 0.0 0.00 0.00 0.00 91 1013.2
20260906052638 63 322 0.0 0.0 0.00 0.00 0.00 91 1013.2
20260906052137 63 322 0.0 0.0 0.00 0.00 0.00 91 1013.2
20260906051637 63 322 0.0 0.0 0.00 0.00 0.00 91 1013.3
20260906051138 63 322 0.0 0.0 0.00 0.00 0.00 91 1013.3
20260906050638 63 322 0.0 0.0 0.00 0.00 0.00 91 1013.3
20260906050139 63 322 0.0 0.0 0.00 0.00 0.00 91 1013.4
20260906045637 63 322 0.0 0.0 0.00 0.00 0.00 91 1013.4
20260906045137 63 322 0.0 0.0 0.00 0.00 0.00 90 1013.4
20260906044638 63 322 0.0 0.0 0.00 0.00 0.00 90 1013.5
20260906044138 63 322 0.0 0.0 0.00 0.00 0.00 90 1013.5
20260906043637 63 322 0.0 0.0 0.00 0.00 0.00 91 1013.5
20260906043137 64 322 0.0 0.0 0.00 0.00 0.00 91 1013.6
20260906042637 64 322 0.0 0.0 0.00 0.00 0.00 91 1013.5
20260906042138 64 322 0.0 0.0 0.00 0.00 0.00 91 1013.5
20260906041638 64 322 0.0 0.0 0.00 0.00 0.00 91 1013.5
20260906041138 64 322 0.0 0.0 0.00 0.00 0.00 91 1013.5
20260906040645 64 322 0.0 0.0 0.00 0.00 0.00 91 1013.4
20260906040139 64 322 0.0 0.0 0.00 0.00 0.00 91 1013.4
20260906035637 64 322 0.0 0.0 0.00 0.00 0.00 91 1013.5
20260906035138 64 322 0.0 0.0 0.00 0.00 0.00 91 1013.4
20260906034638 64 322 0.0 0.0 0.00 0.00 0.00 91 1013.4
20260906034139 64 322 0.0 0.0 0.00 0.00 0.00 91 1013.4
20260906033637 64 322 0.0 0.0 0.00 0.00 0.00 91 1013.6
20260906033137 65 322 0.0 0.0 0.00 0.00 0.00 91 1013.6
20260906032638 65 322 0.0 0.0 0.00 0.00 0.00 91 1013.6
20260906032137 65 322 0.0 0.0 0.00 0.00 0.00 91 1013.5
20260906031638 65 322 0.0 0.0 0.00 0.00 0.00 91 1013.4
20260906031137 65 322 0.0 0.0 0.00 0.00 0.00 91 1013.4
20260906030638 65 322 0.0 0.0 0.00 0.00 0.00 91 1013.4
20260906030138 65 322 0.0 0.0 0.00 0.00 0.00 91 1013.5
20260906025638 65 322 0.0 0.0 0.00 0.00 0.00 91 1013.3
20260906025137 65 322 0.0 0.0 0.00 0.00 0.00 90 1013.3
20260906024637 65 322 0.0 0.0 0.00 0.00 0.00 90 1013.4
20260906024137 66 322 0.0 0.0 0.00 0.00 0.00 90 1013.3
20260906023638 66 322 0.0 0.0 0.00 0.00 0.00 90 1013.3
20260906023138 66 322 0.0 0.0 0.00 0.00 0.00 90 1013.3
20260906022639 66 322 0.0 0.0 0.00 0.00 0.00 90 1013.4
20260906022140 66 322 0.0 0.0 0.00 0.00 0.00 89 1013.3
20260906021641 66 322 0.0 0.0 0.00 0.00 0.00 89 1013.2
20260906021141 67 322 0.0 0.0 0.00 0.00 0.00 89 1013.2
20260906020640 67 322 0.0 0.0 0.00 0.00 0.00 89 1013.2
20260906020140 67 322 0.0 0.0 0.00 0.00 0.00 89 1013.1
20260906015641 67 322 0.0 0.0 0.00 0.00 0.00 88 1013.1
20260906015140 67 322 0.0 0.0 0.00 0.00 0.00 88 1013.0
20260906014641 67 322 0.0 0.0 0.00 0.00 0.00 88 1012.9
20260906014142 68 322 0.0 0.0 0.00 0.00 0.00 88 1012.9
20260906013642 68 322 0.0 0.0 0.00 0.00 0.00 88 1012.8
20260906013141 68 322 0.0 0.0 0.00 0.00 0.00 87 1012.7
20260906012641 68 322 0.0 0.0 0.00 0.00 0.00 87 1012.8
20260906012144 68 322 0.0 0.0 0.00 0.00 0.00 86 1012.7
20260906011643 69 322 0.0 0.0 0.00 0.00 0.00 87 1012.8
20260906011146 69 322 0.0 0.0 0.00 0.00 0.00 86 1012.7
20260906010644 69 322 0.0 0.0 0.00 0.00 0.00 86 1012.6
20260906010144 69 322 0.0 0.0 0.00 0.00 0.00 85 1012.6
20260906005644 69 322 0.0 0.0 0.00 0.00 0.00 85 1012.7
20260906005143 69 322 0.0 0.0 0.00 0.00 0.00 86 1012.7
20260906004644 69 322 0.0 0.0 0.00 0.00 0.00 85 1012.6
20260906004144 69 322 0.0 0.0 0.00 0.00 0.00 85 1012.5
20260906003644 70 322 0.0 0.0 0.00 0.00 0.00 83 1012.5
20260906003144 70 322 0.0 0.0 0.00 0.00 0.00 82 1012.6
20260906002640 70 322 0.0 0.0 0.00 0.00 0.00 82 1012.5
20260906002141 70 322 0.0 0.0 0.00 0.00 0.00 82 1012.4
20260906001642 70 322 0.0 0.0 0.00 0.00 0.00 82 1012.3
20260906001141 71 322 0.0 0.0 0.00 0.00 0.00 83 1012.4
20260906000641 71 322 0.0 0.0 0.00 0.00 0.00 82 1012.3
20260906000142 71 322 0.0 0.0 0.00 0.00 0.00 82 1012.3
20260905235640 72 322 0.0 0.0 0.00 0.00 0.00 81 1012.2
20260905235141 72 322 0.0 0.0 0.00 0.00 0.00 80 1012.1
20260905234641 72 322 0.0 0.0 0.00 0.00 0.00 80 1012.1
20260905234140 73 322 0.0 0.0 0.00 0.00 0.00 77 1012.1
20260905233641 73 322 0.0 0.0 0.00 0.00 0.00 78 1011.9
20260905233140 73 322 0.0 0.0 0.00 0.00 0.00 80 1011.9
20260905232639 74 322 0.0 0.0 0.00 0.00 0.00 78 1011.9
20260905232139 74 322 0.0 0.0 0.00 0.00 0.00 80 1011.9
20260905231638 74 322 0.0 0.0 0.00 0.00 0.00 79 1011.8
20260905231137 74 322 0.0 0.0 0.00 0.00 0.00 78 1011.8
20260905230637 74 322 0.0 0.0 0.00 0.00 0.00 78 1011.7
20260905230138 74 322 0.0 0.0 0.00 0.00 0.00 78 1011.7
20260905225638 75 322 0.0 0.0 0.00 0.00 0.00 79 1011.8
20260905225138 75 322 0.0 0.0 0.00 0.00 0.00 79 1011.8
20260905224638 75 322 0.0 0.0 0.00 0.00 0.00 79 1011.7
20260905224137 75 322 0.0 0.0 0.00 0.00 0.00 79 1011.7
20260905223638 75 322 0.0 0.0 0.00 0.00 0.00 78 1011.7
20260905223137 75 322 0.0 0.0 0.00 0.00 0.00 77 1011.6
20260905222638 75 322 0.0 0.0 0.00 0.00 0.00 76 1011.5
20260905222156 75 322 0.0 0.0 0.00 0.00 0.00 76 1011.5
20260905221655 76 322 0.0 0.0 0.00 0.00 0.00 76 1011.5
20260905221155 76 322 0.0 0.0 0.00 0.00 0.00 76 1011.5
20260905220656 76 322 0.0 0.0 0.00 0.00 0.00 76 1011.4
20260905220155 77 322 0.0 0.0 0.00 0.00 0.00 76 1011.3
20260905215655 77 322 0.0 0.0 0.00 0.00 0.00 73 1011.4
20260905215156 77 322 0.0 1.0 0.00 0.00 0.00 72 1011.4
20260905214656 77 322 0.0 1.0 0.00 0.00 0.00 72 1011.2
20260905214156 77 322 0.0 0.0 0.00 0.00 0.00 73 1011.1
20260905213659 78 322 0.0 0.0 0.00 0.00 0.00 74 1011.0
20260905213156 78 322 0.0 0.0 0.00 0.00 0.00 74 1011.0
20260905212656 78 322 0.0 1.0 0.00 0.00 0.00 74 1010.9
20260905212504 78 322 0.0 1.0 0.00 0.00 0.00 75 1010.8
20260905212138 78 322 0.0 1.0 0.00 0.00 0.00 71 1010.8
20260905211638 78 322 0.0 0.0 0.00 0.00 0.00 72 1010.7
20260905211138 78 322 0.0 1.0 0.00 0.00 0.00 71 1010.8
20260905210639 78 322 0.0 1.0 0.00 0.00 0.00 69 1010.8
20260905210139 78 322 0.0 1.0 0.00 0.00 0.00 71 1010.8
20260905205638 78 322 0.0 1.0 0.00 0.00 0.00 69 1010.8
20260905205138 78 322 0.0 1.0 0.00 0.00 0.00 71 1010.8
20260905204638 78 322 0.0 1.0 0.00 0.00 0.00 70 1010.9
20260905204137 78 322 0.0 1.0 0.00 0.00 0.00 69 1010.8
20260905203638 78 322 0.0 1.0 0.00 0.00 0.00 72 1010.9
20260905203139 78 322 0.0 1.0 0.00 0.00 0.00 70 1010.9
20260905202639 77 322 0.0 0.0 0.00 0.00 0.00 70 1010.9
20260905202143 78 322 0.0 0.0 0.00 0.00 0.00 72 1011.0
20260905201642 78 322 0.0 1.0 0.00 0.00 0.00 72 1011.0
20260905201141 78 322 0.0 1.0 0.00 0.00 0.00 74 1011.0
20260905200641 78 322 0.0 1.0 0.00 0.00 0.00 73 1011.0
20260905200140 79 322 0.0 0.0 0.00 0.00 0.00 68 1011.1
20260905195641 79 322 0.0 0.0 0.00 0.00 0.00 69 1011.2
20260905195140 79 322 0.0 1.0 0.00 0.00 0.00 71 1011.2
20260905194641 79 322 0.0 1.0 0.00 0.00 0.00 70 1011.2
20260905194143 79 322 0.0 1.0 0.00 0.00 0.00 69 1011.2
20260905193641 80 322 0.0 1.0 0.00 0.00 0.00 67 1011.3
20260905193141 80 321 0.0 1.0 0.00 0.00 0.00 69 1011.3
20260905192638 80 321 0.0 1.0 0.00 0.00 0.00 69 1011.3
20260905192138 79 321 0.0 1.0 0.00 0.00 0.00 69 1011.4
20260905191638 79 308 0.0 1.0 0.00 0.00 0.00 68 1011.4
20260905191138 79 317 0.0 1.0 0.00 0.00 0.00 70 1011.4
20260905190638 78 317 0.0 1.0 0.00 0.00 0.00 72 1011.4
20260905190138 79 317 0.0 1.0 0.00 0.00 0.00 71 1011.5
20260905185638 79 320 0.0 1.0 0.00 0.00 0.00 71 1011.6
20260905185138 79 320 0.0 1.0 0.00 0.00 0.00 69 1011.7
20260905184639 79 274 0.0 1.0 0.00 0.00 0.00 70 1011.8
20260905184140 79 286 0.0 1.0 0.00 0.00 0.00 70 1011.9
20260905183638 78 286 0.0 0.0 0.00 0.00 0.00 70 1011.9
20260905183138 78 286 0.0 1.0 0.00 0.00 0.00 70 1012.0
20260905182639 78 286 0.0 1.0 0.00 0.00 0.00 72 1012.0
20260905182137 77 286 0.0 0.0 0.00 0.00 0.00 73 1011.9
20260905181638 77 286 0.0 0.0 0.00 0.00 0.00 73 1012.0
20260905181138 77 286 0.0 0.0 0.00 0.00 0.00 74 1012.0
20260905180638 77 286 0.0 0.0 0.00 0.00 0.00 75 1012.1
20260905180138 77 286 0.0 0.0 0.00 0.00 0.00 78 1012.1
20260905175637 77 286 0.0 0.0 0.00 0.00 0.00 72 1012.2
20260905175138 77 286 0.0 0.0 0.00 0.00 0.00 76 1012.3
20260905174638 77 286 0.0 0.0 0.00 0.00 0.00 74 1012.2
20260905174138 78 269 0.0 0.0 0.00 0.00 0.00 76 1012.3
20260905173637 78 269 0.0 0.0 0.00 0.00 0.00 76 1012.3
20260905173138 78 269 0.0 0.0 0.00 0.00 0.00 77 1012.4
20260905172638 78 269 0.0 0.0 0.00 0.00 0.00 76 1012.4
20260905172139 77 269 0.0 0.0 0.00 0.00 0.00 77 1012.4
20260905171639 77 269 0.0 1.0 0.00 0.00 0.00 78 1012.5
20260905171139 76 269 0.0 1.0 0.00 0.00 0.00 77 1012.6
20260905170638 76 278 0.0 0.0 0.00 0.00 0.00 78 1012.6
20260905170138 76 278 0.0 0.0 0.00 0.00 0.00 77 1012.5
20260905165638 77 278 0.0 0.0 0.00 0.00 0.00 76 1012.5
20260905165139 77 278 0.0 1.0 0.00 0.00 0.00 77 1012.5
20260905164638 77 278 0.0 1.0 0.00 0.00 0.00 77 1012.6
20260905164139 77 278 0.0 1.0 0.00 0.00 0.00 77 1012.7
20260905163638 77 278 0.0 1.0 0.00 0.00 0.00 75 1012.7
20260905163138 77 278 0.0 1.0 0.00 0.00 0.00 78 1012.6
20260905162640 77 278 0.0 0.0 0.00 0.00 0.00 77 1012.7
20260905162141 77 278 0.0 0.0 0.00 0.00 0.00 77 1012.8
20260905161643 77 278 0.0 0.0 0.00 0.00 0.00 78 1012.8
20260905161141 77 278 0.0 0.0 0.00 0.00 0.00 77 1012.8
20260905160643 77 278 0.0 1.0 0.00 0.00 0.00 77 1012.9
20260905160142 77 278 0.0 1.0 0.00 0.00 0.00 78 1012.9
20260905155641 77 270 0.0 1.0 0.00 0.00 0.00 79 1013.0
20260905155140 77 270 0.0 0.0 0.00 0.00 0.00 81 1013.0
20260905154642 77 270 0.0 0.0 0.00 0.00 0.00 81 1013.1
20260905154141 77 270 0.0 0.0 0.00 0.00 0.00 80 1013.2
20260905153641 77 270 0.0 0.0 0.00 0.00 0.00 79 1013.3
20260905153141 77 270 0.0 0.0 0.00 0.00 0.00 80 1013.4
20260905152638 77 270 0.0 0.0 0.00 0.00 0.00 77 1013.4
20260905152138 77 270 0.0 0.0 0.00 0.00 0.00 78 1013.4
20260905151638 77 270 0.0 0.0 0.00 0.00 0.00 81 1013.4
20260905151138 77 270 0.0 0.0 0.00 0.00 0.00 81 1013.3
20260905150638 76 270 0.0 0.0 0.00 0.00 0.00 80 1013.3
20260905150139 76 270 0.0 0.0 0.00 0.00 0.00 78 1013.3
20260905145639 76 273 0.0 0.0 0.00 0.00 0.00 80 1013.2
20260905145138 77 275 0.0 0.0 0.00 0.00 0.00 80 1013.2
20260905144638 77 275 0.0 0.0 0.00 0.00 0.00 80 1013.2
20260905144138 77 275 0.0 0.0 0.00 0.00 0.00 78 1013.2
20260905143639 77 275 0.0 0.0 0.00 0.00 0.00 81 1013.0
20260905143138 77 275 0.0 0.0 0.00 0.00 0.00 81 1012.9
20260905142639 76 275 0.0 0.0 0.00 0.00 0.00 83 1012.9
20260905142138 76 275 0.0 0.0 0.00 0.00 0.00 81 1012.8
20260905141639 76 275 0.0 0.0 0.00 0.00 0.00 81 1012.7
20260905141138 76 275 0.0 0.0 0.00 0.00 0.00 81 1012.6
20260905140640 76 275 0.0 0.0 0.00 0.00 0.00 80 1012.6
20260905140138 76 275 0.0 0.0 0.00 0.00 0.00 79 1012.5
20260905135640 75 275 0.0 0.0 0.00 0.00 0.00 85 1012.5
20260905135139 75 275 0.0 0.0 0.00 0.00 0.00 85 1012.7
20260905134640 75 275 0.0 0.0 0.00 0.00 0.00 85 1012.7
20260905134138 74 275 0.0 0.0 0.00 0.00 0.00 86 1012.7
20260905133639 74 275 0.0 0.0 0.00 0.00 0.00 85 1012.8
20260905133139 74 275 0.0 0.0 0.00 0.00 0.00 86 1012.8
20260905132639 74 275 0.0 0.0 0.00 0.00 0.00 86 1012.8
20260905132141 74 275 0.0 0.0 0.00 0.00 0.00 85 1012.8
20260905131642 74 275 0.0 0.0 0.00 0.00 0.00 85 1012.8
20260905131142 73 275 0.0 0.0 0.00 0.00 0.00 87 1012.9
20260905130641 73 275 0.0 0.0 0.00 0.00 0.00 86 1012.7
20260905130141 73 275 0.0 2.0 0.00 0.00 0.00 87 1012.5
20260905125641 73 274 0.0 3.0 0.00 0.00 0.00 89 1012.4
20260905125142 72 5 0.0 3.0 0.00 0.00 0.00 90 1012.3
20260905124641 72 279 1.0 2.0 0.00 0.00 0.00 90 1012.3
20260905124141 72 276 0.0 2.0 0.00 0.00 0.00 91 1012.1
20260905123641 69 276 0.0 0.0 0.00 0.00 0.00 94 1012.2
20260905123141 69 276 0.0 0.0 0.00 0.00 0.00 94 1012.2
20260905122638 69 276 0.0 0.0 0.00 0.00 0.00 94 1012.1
20260905122138 69 276 0.0 0.0 0.00 0.00 0.00 94 1012.2
20260905121638 69 276 0.0 1.0 0.00 0.00 0.00 94 1012.3
20260905121138 69 276 0.0 1.0 0.00 0.00 0.00 94 1012.3
20260905120638 69 276 0.0 0.0 0.00 0.00 0.00 94 1012.4
20260905120137 69 276 0.0 0.0 0.00 0.00 0.00 94 1012.3
20260905115639 69 276 0.0 0.0 0.00 0.00 0.00 94 1012.3
20260905115138 69 276 0.0 0.0 0.00 0.00 0.00 94 1012.2
20260905114639 69 276 0.0 0.0 0.00 0.00 0.00 94 1012.2
20260905114138 69 276 0.0 0.0 0.00 0.00 0.00 94 1012.2
20260905113638 69 276 0.0 0.0 0.00 0.00 0.00 94 1012.1
20260905113138 69 276 0.0 0.0 0.00 0.00 0.00 94 1012.1
20260905112639 69 276 0.0 0.0 0.00 0.00 0.00 94 1012.1
20260905112141 69 276 0.0 0.0 0.00 0.00 0.00 94 1012.0
20260905111641 69 276 0.0 0.0 0.00 0.00 0.00 94 1012.0
20260905111142 69 276 0.0 0.0 0.00 0.00 0.00 94 1011.8
20260905110641 69 276 0.0 0.0 0.00 0.00 0.00 94 1011.8
20260905110145 69 276 0.0 0.0 0.00 0.00 0.00 94 1011.5
20260905105641 69 276 0.0 0.0 0.00 0.00 0.00 94 1011.5
20260905105143 69 276 0.0 0.0 0.00 0.00 0.00 94 1011.5
20260905104641 69 276 0.0 0.0 0.00 0.00 0.00 94 1011.4
20260905104145 69 276 0.0 0.0 0.00 0.00 0.00 94 1011.5
20260905103643 69 276 0.0 0.0 0.00 0.00 0.00 94 1011.3
20260905103141 69 276 0.0 0.0 0.00 0.00 0.00 94 1011.2
20260905102638 69 276 0.0 0.0 0.00 0.00 0.00 94 1011.3
20260905102138 69 276 0.0 0.0 0.00 0.00 0.00 94 1011.3
20260905101639 69 276 0.0 0.0 0.00 0.00 0.00 94 1011.2
20260905101138 69 276 0.0 0.0 0.00 0.00 0.00 94 1011.2
20260905100638 69 276 0.0 0.0 0.00 0.00 0.00 94 1011.1
20260905100140 69 276 0.0 0.0 0.00 0.00 0.00 94 1011.1
20260905095638 69 276 0.0 0.0 0.00 0.00 0.00 94 1011.1
20260905095140 69 276 0.0 0.0 0.00 0.00 0.00 94 1011.1
20260905094638 69 276 0.0 0.0 0.00 0.00 0.00 94 1011.1
20260905094138 69 276 0.0 0.0 0.00 0.00 0.00 94 1011.2
20260905093639 69 276 0.0 0.0 0.00 0.00 0.00 94 1011.2
20260905093138 69 276 0.0 0.0 0.00 0.00 0.00 94 1011.3
20260905092640 69 276 0.0 0.0 0.00 0.00 0.00 93 1011.3
20260905092143 69 276 0.0 0.0 0.00 0.00 0.00 93 1011.3
20260905091642 70 276 0.0 0.0 0.00 0.00 0.00 93 1011.2
20260905091141 70 276 0.0 0.0 0.00 0.00 0.00 93 1011.1
20260905090643 70 276 0.0 0.0 0.00 0.00 0.00 93 1011.2
20260905090142 70 276 0.0 0.0 0.00 0.00 0.00 93 1011.1
20260905085644 70 276 0.0 0.0 0.00 0.00 0.00 94 1011.1
20260905085142 70 276 0.0 0.0 0.00 0.00 0.00 93 1011.1
20260905084642 70 276 0.0 0.0 0.00 0.00 0.00 93 1011.1
20260905084142 70 276 0.0 0.0 0.00 0.00 0.00 93 1011.1
20260905083644 70 276 0.0 0.0 0.00 0.00 0.00 93 1011.1
20260905083141 70 276 0.0 0.0 0.00 0.00 0.00 93 1011.1
20260905082639 70 276 0.0 0.0 0.00 0.00 0.00 93 1011.2
20260905082138 70 276 0.0 0.0 0.00 0.00 0.00 93 1011.2
20260905081638 70 276 0.0 0.0 0.00 0.00 0.00 93 1011.4
20260905081139 70 276 0.0 0.0 0.00 0.00 0.00 93 1011.4
20260905080638 70 276 0.0 0.0 0.00 0.00 0.00 93 1011.4
20260905080138 70 276 0.0 0.0 0.00 0.00 0.00 94 1011.5
20260905075638 70 276 0.0 0.0 0.00 0.00 0.00 93 1011.4
20260905075141 70 276 0.0 0.0 0.00 0.00 0.00 93 1011.3
20260905074639 70 276 0.0 0.0 0.00 0.00 0.00 93 1011.4
20260905074138 70 276 0.0 0.0 0.00 0.00 0.00 93 1011.4
20260905073639 71 276 0.0 0.0 0.00 0.00 0.00 93 1011.4
20260905073138 71 276 0.0 0.0 0.00 0.00 0.00 93 1011.3
20260905072640 71 276 0.0 0.0 0.00 0.00 0.00 93 1011.4
20260905072141 71 276 0.0 0.0 0.00 0.00 0.00 93 1011.4
20260905071641 71 276 0.0 0.0 0.00 0.00 0.00 93 1011.5
20260905071141 71 276 0.0 0.0 0.00 0.00 0.00 93 1011.6
20260905070643 71 276 0.0 1.0 0.00 0.00 0.00 93 1011.6
20260905070142 71 276 0.0 1.0 0.00 0.00 0.00 93 1011.7
20260905065641 71 276 0.0 0.0 0.00 0.00 0.00 93 1011.8
20260905065142 71 276 0.0 0.0 0.00 0.00 0.00 93 1011.8
20260905064642 71 276 0.0 0.0 0.00 0.00 0.00 93 1011.9
20260905064142 71 276 0.0 0.0 0.00 0.00 0.00 93 1012.0
20260905063642 71 276 0.0 0.0 0.00 0.00 0.00 93 1012.1
20260905063141 71 276 0.0 0.0 0.00 0.00 0.00 93 1012.3
20260905062642 71 276 0.0 0.0 0.00 0.00 0.00 93 1012.4
20260905062141 71 276 0.0 0.0 0.00 0.00 0.00 94 1012.4
20260905061642 71 276 0.0 0.0 0.00 0.00 0.00 93 1012.4
20260905061143 71 276 0.0 0.0 0.00 0.00 0.00 93 1012.5
20260905060642 71 276 0.0 0.0 0.00 0.00 0.00 93 1012.4
20260905060141 71 276 0.0 0.0 0.00 0.00 0.00 93 1012.3
20260905055641 72 276 0.0 0.0 0.00 0.00 0.00 93 1012.4
20260905055142 72 276 0.0 0.0 0.00 0.00 0.00 93 1012.4
20260905054641 72 276 0.0 0.0 0.00 0.00 0.00 93 1012.5
20260905054142 72 276 0.0 0.0 0.00 0.00 0.00 93 1012.5
20260905053642 72 276 0.0 0.0 0.00 0.00 0.00 93 1012.6